Time,TemperatureF,DewpointF,PressureIn,WindDirection,WindDirectionDegrees,WindSpeedMPH,WindSpeedGustMPH,Humidity,HourlyPrecipIn,Conditions,Clouds,dailyrainin,SoftwareType,DateUTC
2013-07-26 00:00:00,58.7,58.1,30.02,North,-999,0.0,0.0,98,0.00,,,-99.99,WeatherLink 5.7,2013-07-26 04:00:00,
2013-07-26 00:04:00,58.7,58.1,30.02,WNW,292,0.0,2.0,98,0.00,,,-99.99,WeatherLink 5.7,2013-07-26 04:04:00,
2013-07-26 00:09:00,58.7,58.1,30.02,North,-999,0.0,0.0,98,0.01,,,-99.99,WeatherLink 5.7,2013-07-26 04:09:00,
2013-07-26 00:14:00,58.7,58.1,30.02,WNW,292,0.0,2.0,98,0.01,,,-99.99,WeatherLink 5.7,2013-07-26 04:14:00,
2013-07-26 00:19:00,58.7,58.1,30.02,NNW,337,0.0,2.0,98,0.01,,,-99.99,WeatherLink 5.7,2013-07-26 04:19:00,
2013-07-26 00:25:00,58.7,58.1,30.02,NNW,337,0.0,2.0,98,0.01,,,-99.99,WeatherLink 5.7,2013-07-26 04:25:00,
2013-07-26 00:34:00,58.9,58.3,30.01,NW,315,0.0,3.0,98,0.01,,,-99.99,WeatherLink 5.7,2013-07-26 04:34:00,
2013-07-26 00:44:00,58.9,58.3,30.01,NW,315,1.0,3.0,98,0.01,,,-99.99,WeatherLink 5.7,2013-07-26 04:44:00,
2013-07-26 00:49:00,58.9,58.3,30.01,West,270,0.0,3.0,98,0.01,,,-99.99,WeatherLink 5.7,2013-07-26 04:49:00,
2013-07-26 00:59:00,59.0,58.4,30.01,NW,315,0.0,3.0,98,0.01,,,-99.99,WeatherLink 5.7,2013-07-26 04:59:00,
2013-07-26 01:04:00,59.0,58.4,30.00,NW,315,0.0,2.0,98,0.01,,,-99.99,WeatherLink 5.7,2013-07-26 05:04:00,
2013-07-26 01:10:00,59.0,58.4,30.00,WNW,292,0.0,2.0,98,0.00,,,-99.99,WeatherLink 5.7,2013-07-26 05:10:00,
2013-07-26 01:19:00,59.0,58.4,30.00,NW,315,0.0,3.0,98,0.00,,,-99.99,WeatherLink 5.7,2013-07-26 05:19:00,
2013-07-26 01:29:00,59.2,58.6,30.00,West,270,0.0,2.0,98,0.00,,,-99.99,WeatherLink 5.7,2013-07-26 05:29:00,
2013-07-26 01:34:00,59.2,58.6,30.00,West,270,0.0,2.0,98,0.00,,,-99.99,WeatherLink 5.7,2013-07-26 05:34:00,
2013-07-26 01:44:00,59.2,58.6,30.00,North,0,0.0,1.0,98,0.00,,,-99.99,WeatherLink 5.7,2013-07-26 05:44:00,
2013-07-26 01:54:00,59.3,58.7,30.00,NNW,337,1.0,5.0,98,0.00,,,-99.99,WeatherLink 5.7,2013-07-26 05:54:00,
2013-07-26 01:59:00,59.3,58.7,30.00,NNW,337,0.0,2.0,98,0.00,,,-99.99,WeatherLink 5.7,2013-07-26 05:59:00,
2013-07-26 02:09:00,59.3,58.7,29.99,NNW,337,0.0,3.0,98,0.00,,,-99.99,WeatherLink 5.7,2013-07-26 06:09:00,
2013-07-26 02:19:00,59.3,58.7,29.99,WNW,292,0.0,2.0,98,0.00,,,-99.99,WeatherLink 5.7,2013-07-26 06:19:00,
2013-07-26 02:29:00,59.5,58.9,29.99,NW,315,0.0,1.0,98,0.00,,,-99.99,WeatherLink 5.7,2013-07-26 06:29:00,
2013-07-26 02:39:00,59.5,58.9,29.99,NW,315,0.0,1.0,98,0.01,,,-99.99,WeatherLink 5.7,2013-07-26 06:39:00,
2013-07-26 02:49:00,59.6,59.0,29.99,NW,315,0.0,2.0,98,0.01,,,-99.99,WeatherLink 5.7,2013-07-26 06:49:00,
2013-07-26 02:59:00,59.6,59.0,29.99,North,0,0.0,3.0,98,0.01,,,-99.99,WeatherLink 5.7,2013-07-26 06:59:00,
2013-07-26 03:09:00,59.6,59.0,29.98,WNW,292,0.0,2.0,98,0.02,,,-99.99,WeatherLink 5.7,2013-07-26 07:09:00,
2013-07-26 03:19:00,59.6,59.0,29.98,NW,315,0.0,2.0,98,0.02,,,-99.99,WeatherLink 5.7,2013-07-26 07:19:00,
2013-07-26 03:29:00,59.8,59.2,29.98,West,270,0.0,1.0,98,0.03,,,-99.99,WeatherLink 5.7,2013-07-26 07:29:00,
2013-07-26 03:39:00,59.8,59.2,29.97,North,-999,0.0,0.0,98,0.02,,,-99.99,WeatherLink 5.7,2013-07-26 07:39:00,
2013-07-26 03:49:00,59.8,59.2,29.97,North,0,0.0,2.0,98,0.02,,,-99.99,WeatherLink 5.7,2013-07-26 07:49:00,
2013-07-26 03:54:00,59.8,59.2,29.97,WNW,292,0.0,2.0,98,0.02,,,-99.99,WeatherLink 5.7,2013-07-26 07:54:00,
2013-07-26 04:04:00,59.9,59.3,29.96,NNW,337,0.0,2.0,98,0.01,,,-99.99,WeatherLink 5.7,2013-07-26 08:04:00,
2013-07-26 04:10:00,59.9,59.3,29.96,WSW,247,0.0,2.0,98,0.01,,,-99.99,WeatherLink 5.7,2013-07-26 08:10:00,
2013-07-26 04:19:00,59.9,59.3,29.96,NW,315,0.0,3.0,98,0.01,,,-99.99,WeatherLink 5.7,2013-07-26 08:19:00,
2013-07-26 04:29:00,59.9,59.3,29.96,NNW,337,0.0,2.0,98,0.01,,,-99.99,WeatherLink 5.7,2013-07-26 08:29:00,
2013-07-26 04:39:00,60.1,59.5,29.96,NNW,337,0.0,1.0,98,0.01,,,-99.99,WeatherLink 5.7,2013-07-26 08:39:00,
2013-07-26 04:49:00,60.1,59.5,29.96,WNW,292,0.0,2.0,98,0.01,,,-99.99,WeatherLink 5.7,2013-07-26 08:49:00,
2013-07-26 04:55:00,60.1,59.5,29.96,WNW,292,0.0,3.0,98,0.02,,,-99.99,WeatherLink 5.7,2013-07-26 08:55:00,
2013-07-26 05:04:00,60.1,59.5,29.96,WNW,292,0.0,3.0,98,0.02,,,-99.99,WeatherLink 5.7,2013-07-26 09:04:00,
2013-07-26 05:14:00,60.2,59.6,29.96,SSE,157,0.0,1.0,98,0.03,,,-99.99,WeatherLink 5.7,2013-07-26 09:14:00,
2013-07-26 05:24:00,60.2,59.6,29.95,North,0,0.0,2.0,98,0.04,,,-99.99,WeatherLink 5.7,2013-07-26 09:24:00,
2013-07-26 05:34:00,60.2,59.6,29.96,NW,315,0.0,2.0,98,0.03,,,-99.99,WeatherLink 5.7,2013-07-26 09:34:00,
2013-07-26 05:40:00,60.2,59.6,29.96,WNW,292,0.0,2.0,98,0.03,,,-99.99,WeatherLink 5.7,2013-07-26 09:40:00,
2013-07-26 05:49:00,60.2,59.6,29.95,NNW,337,0.0,2.0,98,0.04,,,-99.99,WeatherLink 5.7,2013-07-26 09:49:00,
2013-07-26 05:54:00,60.2,59.6,29.95,WSW,247,0.0,2.0,98,0.03,,,-99.99,WeatherLink 5.7,2013-07-26 09:54:00,
2013-07-26 06:04:00,60.4,59.8,29.95,WNW,292,0.0,1.0,98,0.04,,,-99.99,WeatherLink 5.7,2013-07-26 10:04:00,
2013-07-26 06:09:00,60.4,59.8,29.95,NW,315,0.0,2.0,98,0.03,,,-99.99,WeatherLink 5.7,2013-07-26 10:09:00,
2013-07-26 06:19:00,60.4,59.8,29.95,North,0,0.0,2.0,98,0.03,,,-99.99,WeatherLink 5.7,2013-07-26 10:19:00,
2013-07-26 06:24:00,60.5,59.9,29.95,North,0,0.0,2.0,98,0.02,,,-99.99,WeatherLink 5.7,2013-07-26 10:24:00,
2013-07-26 06:34:00,60.5,59.9,29.95,North,0,0.0,2.0,98,0.03,,,-99.99,WeatherLink 5.7,2013-07-26 10:34:00,
2013-07-26 06:39:00,60.5,59.9,29.95,West,270,0.0,5.0,98,0.03,,,-99.99,WeatherLink 5.7,2013-07-26 10:39:00,
2013-07-26 06:44:00,60.7,60.1,29.95,WSW,247,0.0,2.0,98,0.02,,,-99.99,WeatherLink 5.7,2013-07-26 10:44:00,
2013-07-26 06:54:00,60.7,60.1,29.95,North,0,1.0,2.0,98,0.03,,,-99.99,WeatherLink 5.7,2013-07-26 10:54:00,
2013-07-26 07:05:00,60.9,60.3,29.95,North,0,1.0,7.0,98,0.03,,,-99.99,WeatherLink 5.7,2013-07-26 11:05:00,
2013-07-26 07:14:00,60.9,60.3,29.95,WNW,292,1.0,3.0,98,0.04,,,-99.99,WeatherLink 5.7,2013-07-26 11:14:00,
2013-07-26 07:19:00,61.0,60.4,29.95,NNW,337,0.0,2.0,98,0.04,,,-99.99,WeatherLink 5.7,2013-07-26 11:19:00,
2013-07-26 07:29:00,61.0,60.4,29.95,North,0,1.0,3.0,98,0.04,,,-99.99,WeatherLink 5.7,2013-07-26 11:29:00,
2013-07-26 07:39:00,61.2,60.6,29.95,NE,45,1.0,8.0,98,0.03,,,-99.99,WeatherLink 5.7,2013-07-26 11:39:00,
2013-07-26 07:44:00,61.2,60.6,29.95,NNW,337,1.0,5.0,98,0.03,,,-99.99,WeatherLink 5.7,2013-07-26 11:44:00,
2013-07-26 07:54:00,61.3,60.7,29.95,North,0,1.0,5.0,98,0.02,,,-99.99,WeatherLink 5.7,2013-07-26 11:54:00,
2013-07-26 08:04:00,61.3,60.7,29.95,NNW,337,1.0,5.0,98,0.02,,,-99.99,WeatherLink 5.7,2013-07-26 12:04:00,
2013-07-26 08:09:00,61.3,60.7,29.95,NW,315,1.0,5.0,98,0.01,,,-99.99,WeatherLink 5.7,2013-07-26 12:09:00,
2013-07-26 08:19:00,61.5,60.9,29.94,NW,315,0.0,2.0,98,0.02,,,-99.99,WeatherLink 5.7,2013-07-26 12:19:00,
2013-07-26 08:29:00,61.6,61.0,29.94,NNW,337,1.0,8.0,98,0.02,,,-99.99,WeatherLink 5.7,2013-07-26 12:29:00,
2013-07-26 08:34:00,61.6,61.0,29.94,North,0,1.0,5.0,98,0.03,,,-99.99,WeatherLink 5.7,2013-07-26 12:34:00,
2013-07-26 08:44:00,61.6,61.0,29.94,North,0,0.0,3.0,98,0.03,,,-99.99,WeatherLink 5.7,2013-07-26 12:44:00,
2013-07-26 08:54:00,61.6,61.0,29.94,North,0,1.0,3.0,98,0.03,,,-99.99,WeatherLink 5.7,2013-07-26 12:54:00,
2013-07-26 09:04:00,61.8,61.2,29.94,NNW,337,0.0,2.0,98,0.02,,,-99.99,WeatherLink 5.7,2013-07-26 13:04:00,
2013-07-26 09:10:00,62.0,61.4,29.94,NW,315,0.0,2.0,98,0.02,,,-99.99,WeatherLink 5.7,2013-07-26 13:10:00,
2013-07-26 09:19:00,62.0,61.4,29.94,NNW,337,0.0,3.0,98,0.01,,,-99.99,WeatherLink 5.7,2013-07-26 13:19:00,
2013-07-26 09:24:00,62.0,61.4,29.94,NNE,22,1.0,5.0,98,0.01,,,-99.99,WeatherLink 5.7,2013-07-26 13:24:00,
2013-07-26 09:34:00,62.1,61.5,29.94,NNW,337,1.0,6.0,98,0.00,,,-99.99,WeatherLink 5.7,2013-07-26 13:34:00,
2013-07-26 09:39:00,62.3,61.7,29.94,NW,315,1.0,3.0,98,0.00,,,-99.99,WeatherLink 5.7,2013-07-26 13:39:00,
2013-07-26 09:49:00,62.6,62.0,29.93,SW,225,0.0,2.0,98,0.00,,,-99.99,WeatherLink 5.7,2013-07-26 13:49:00,
2013-07-26 09:59:00,62.6,62.0,29.93,North,0,0.0,2.0,98,0.00,,,-99.99,WeatherLink 5.7,2013-07-26 13:59:00,
2013-07-26 10:04:00,62.7,62.1,29.93,North,0,0.0,4.0,98,0.00,,,-99.99,WeatherLink 5.7,2013-07-26 14:04:00,
2013-07-26 10:14:00,62.9,62.3,29.93,North,0,1.0,3.0,98,0.00,,,-99.99,WeatherLink 5.7,2013-07-26 14:14:00,
2013-07-26 10:20:00,63.1,62.5,29.93,WNW,292,2.0,7.0,98,0.00,,,-99.99,WeatherLink 5.7,2013-07-26 14:20:00,
2013-07-26 10:29:00,63.2,62.6,29.93,West,270,1.0,10.0,98,0.00,,,-99.99,WeatherLink 5.7,2013-07-26 14:29:00,
2013-07-26 10:39:00,63.4,62.8,29.92,North,0,1.0,3.0,98,0.00,,,-99.99,WeatherLink 5.7,2013-07-26 14:39:00,
2013-07-26 10:49:00,63.4,62.8,29.92,WNW,292,1.0,6.0,98,0.00,,,-99.99,WeatherLink 5.7,2013-07-26 14:49:00,
2013-07-26 10:59:00,63.7,63.1,29.92,WSW,247,1.0,6.0,98,0.00,,,-99.99,WeatherLink 5.7,2013-07-26 14:59:00,
2013-07-26 11:04:00,63.7,63.1,29.92,WNW,292,2.0,11.0,98,0.00,,,-99.99,WeatherLink 5.7,2013-07-26 15:04:00,
2013-07-26 11:14:00,64.0,63.4,29.92,NNW,337,1.0,3.0,98,0.00,,,-99.99,WeatherLink 5.7,2013-07-26 15:14:00,
2013-07-26 11:24:00,64.0,63.4,29.92,NNW,337,2.0,5.0,98,0.00,,,-99.99,WeatherLink 5.7,2013-07-26 15:24:00,
2013-07-26 11:34:00,64.0,63.4,29.92,North,0,1.0,2.0,98,0.00,,,-99.99,WeatherLink 5.7,2013-07-26 15:34:00,
2013-07-26 11:39:00,64.3,63.7,29.92,WNW,292,0.0,2.0,98,0.00,,,-99.99,WeatherLink 5.7,2013-07-26 15:39:00,
2013-07-26 11:49:00,64.3,63.7,29.92,North,0,1.0,5.0,98,0.00,,,-99.99,WeatherLink 5.7,2013-07-26 15:49:00,
2013-07-26 11:59:00,64.8,64.2,29.92,WNW,292,1.0,7.0,98,0.00,,,-99.99,WeatherLink 5.7,2013-07-26 15:59:00,
2013-07-26 12:09:00,65.0,64.1,29.91,NNE,22,1.0,6.0,97,0.00,,,-99.99,WeatherLink 5.7,2013-07-26 16:09:00,
2013-07-26 12:19:00,65.5,64.3,29.91,North,0,2.0,7.0,96,0.00,,,-99.99,WeatherLink 5.7,2013-07-26 16:19:00,
2013-07-26 12:29:00,66.1,64.6,29.91,North,0,1.0,8.0,95,0.00,,,-99.99,WeatherLink 5.7,2013-07-26 16:29:00,
2013-07-26 12:39:00,66.8,64.1,29.91,North,0,1.0,5.0,91,0.00,,,-99.99,WeatherLink 5.7,2013-07-26 16:39:00,
2013-07-26 12:49:00,67.3,63.9,29.91,North,0,2.0,6.0,89,0.00,,,-99.99,WeatherLink 5.7,2013-07-26 16:49:00,
2013-07-26 12:59:00,67.9,63.9,29.91,North,0,1.0,5.0,87,0.00,,,-99.99,WeatherLink 5.7,2013-07-26 16:59:00,
2013-07-26 13:09:00,68.8,64.4,29.91,WNW,292,2.0,6.0,86,0.00,,,-99.99,WeatherLink 5.7,2013-07-26 17:09:00,
2013-07-26 13:14:00,68.9,64.5,29.91,NW,315,1.0,6.0,86,0.00,,,-99.99,WeatherLink 5.7,2013-07-26 17:14:00,
2013-07-26 13:24:00,69.1,65.1,29.90,WNW,292,2.0,8.0,87,0.00,,,-99.99,WeatherLink 5.7,2013-07-26 17:24:00,
2013-07-26 13:34:00,68.8,64.4,29.90,North,0,1.0,5.0,86,0.00,,,-99.99,WeatherLink 5.7,2013-07-26 17:34:00,
2013-07-26 13:44:00,68.8,64.4,29.90,NNW,337,1.0,4.0,86,0.00,,,-99.99,WeatherLink 5.7,2013-07-26 17:44:00,
2013-07-26 13:54:00,68.9,64.2,29.89,WNW,292,1.0,3.0,85,0.00,,,-99.99,WeatherLink 5.7,2013-07-26 17:54:00,
2013-07-26 13:59:00,68.9,63.9,29.89,NW,315,1.0,6.0,84,0.00,,,-99.99,WeatherLink 5.7,2013-07-26 17:59:00,
2013-07-26 14:09:00,69.1,63.7,29.90,West,270,1.0,3.0,83,0.00,,,-99.99,WeatherLink 5.7,2013-07-26 18:09:00,
2013-07-26 14:19:00,69.1,64.4,29.90,WNW,292,1.0,3.0,85,0.00,,,-99.99,WeatherLink 5.7,2013-07-26 18:19:00,
2013-07-26 14:29:00,69.3,63.2,29.90,NW,315,2.0,11.0,81,0.00,,,-99.99,WeatherLink 5.7,2013-07-26 18:29:00,
2013-07-26 14:39:00,69.3,63.2,29.89,North,0,1.0,5.0,81,0.00,,,-99.99,WeatherLink 5.7,2013-07-26 18:39:00,
2013-07-26 14:49:00,69.8,65.1,29.89,West,270,1.0,3.0,85,0.00,,,-99.99,WeatherLink 5.7,2013-07-26 18:49:00,
2013-07-26 14:59:00,70.1,65.4,29.89,West,270,2.0,6.0,85,0.01,,,-99.99,WeatherLink 5.7,2013-07-26 18:59:00,
2013-07-26 15:09:00,69.6,65.6,29.90,NW,315,2.0,6.0,87,0.01,,,-99.99,WeatherLink 5.7,2013-07-26 19:09:00,
2013-07-26 15:14:00,69.6,65.9,29.90,NNW,337,2.0,5.0,88,0.01,,,-99.99,WeatherLink 5.7,2013-07-26 19:14:00,
2013-07-26 15:19:00,69.3,65.6,29.90,NNW,337,2.0,6.0,88,0.01,,,-99.99,WeatherLink 5.7,2013-07-26 19:19:00,
2013-07-26 15:29:00,69.6,66.5,29.90,WNW,292,1.0,4.0,90,0.01,,,-99.99,WeatherLink 5.7,2013-07-26 19:29:00,
2013-07-26 15:34:00,69.6,66.2,29.90,WNW,292,2.0,6.0,89,0.01,,,-99.99,WeatherLink 5.7,2013-07-26 19:34:00,
2013-07-26 15:39:00,69.8,66.4,29.90,West,270,1.0,3.0,89,0.01,,,-99.99,WeatherLink 5.7,2013-07-26 19:39:00,
2013-07-26 15:49:00,69.8,66.4,29.90,NNW,337,0.0,1.0,89,0.01,,,-99.99,WeatherLink 5.7,2013-07-26 19:49:00,
2013-07-26 15:54:00,69.9,66.2,29.90,North,0,1.0,4.0,88,0.01,,,-99.99,WeatherLink 5.7,2013-07-26 19:54:00,
2013-07-26 15:59:00,69.9,65.9,29.90,North,0,0.0,3.0,87,0.00,,,-99.99,WeatherLink 5.7,2013-07-26 19:59:00,
2013-07-26 16:09:00,70.1,66.0,29.89,North,0,0.0,2.0,87,0.00,,,-99.99,WeatherLink 5.7,2013-07-26 20:09:00,
2013-07-26 16:19:00,70.3,66.6,29.90,North,0,1.0,2.0,88,0.00,,,-99.99,WeatherLink 5.7,2013-07-26 20:19:00,
2013-07-26 16:29:00,70.4,67.0,29.90,WNW,292,1.0,3.0,89,0.00,,,-99.99,WeatherLink 5.7,2013-07-26 20:29:00,
2013-07-26 16:39:00,70.8,67.1,29.89,NNW,337,1.0,4.0,88,0.01,,,-99.99,WeatherLink 5.7,2013-07-26 20:39:00,
2013-07-26 16:49:00,70.8,67.4,29.89,WNW,292,1.0,3.0,89,0.01,,,-99.99,WeatherLink 5.7,2013-07-26 20:49:00,
2013-07-26 16:54:00,70.8,67.4,29.89,WNW,292,1.0,3.0,89,0.01,,,-99.99,WeatherLink 5.7,2013-07-26 20:54:00,
2013-07-26 17:04:00,70.6,67.2,29.89,NW,315,0.0,2.0,89,0.01,,,-99.99,WeatherLink 5.7,2013-07-26 21:04:00,
2013-07-26 17:09:00,70.8,67.4,29.89,West,270,0.0,3.0,89,0.01,,,-99.99,WeatherLink 5.7,2013-07-26 21:09:00,
2013-07-26 17:19:00,70.9,67.5,29.89,ENE,67,0.0,3.0,89,0.01,,,-99.99,WeatherLink 5.7,2013-07-26 21:19:00,
2013-07-26 17:24:00,71.1,67.7,29.89,North,0,0.0,5.0,89,0.01,,,-99.99,WeatherLink 5.7,2013-07-26 21:24:00,
2013-07-26 17:34:00,71.3,66.6,29.89,SW,225,1.0,7.0,85,0.00,,,-99.99,WeatherLink 5.7,2013-07-26 21:34:00,
2013-07-26 17:39:00,71.6,67.2,29.89,North,0,0.0,2.0,86,0.00,,,-99.99,WeatherLink 5.7,2013-07-26 21:39:00,
2013-07-26 17:49:00,71.8,67.4,29.89,North,0,0.0,1.0,86,0.00,,,-99.99,WeatherLink 5.7,2013-07-26 21:49:00,
2013-07-26 17:54:00,72.0,67.6,29.89,North,0,0.0,2.0,86,0.00,,,-99.99,WeatherLink 5.7,2013-07-26 21:54:00,
2013-07-26 18:04:00,72.1,67.3,29.89,North,-999,0.0,0.0,85,0.00,,,-99.99,WeatherLink 5.7,2013-07-26 22:04:00,
2013-07-26 18:14:00,72.3,67.5,29.89,North,-999,0.0,0.0,85,0.00,,,-99.99,WeatherLink 5.7,2013-07-26 22:14:00,
2013-07-26 18:24:00,72.5,67.7,29.89,North,-999,0.0,0.0,85,0.00,,,-99.99,WeatherLink 5.7,2013-07-26 22:24:00,
2013-07-26 18:34:00,72.7,67.9,29.89,North,-999,0.0,0.0,85,0.00,,,-99.99,WeatherLink 5.7,2013-07-26 22:34:00,
2013-07-26 18:44:00,72.7,67.2,29.89,NNW,337,0.0,2.0,83,0.00,,,-99.99,WeatherLink 5.7,2013-07-26 22:44:00,
2013-07-26 18:54:00,72.5,67.0,29.89,North,-999,0.0,0.0,83,0.00,,,-99.99,WeatherLink 5.7,2013-07-26 22:54:00,
2013-07-26 18:59:00,72.5,66.7,29.89,North,-999,0.0,0.0,82,0.00,,,-99.99,WeatherLink 5.7,2013-07-26 22:59:00,
2013-07-26 19:09:00,72.1,67.3,29.90,North,-999,0.0,0.0,85,0.00,,,-99.99,WeatherLink 5.7,2013-07-26 23:09:00,
2013-07-26 19:19:00,71.8,67.0,29.90,North,-999,0.0,0.0,85,0.00,,,-99.99,WeatherLink 5.7,2013-07-26 23:19:00,
2013-07-26 19:24:00,71.5,66.4,29.90,North,-999,0.0,0.0,84,0.00,,,-99.99,WeatherLink 5.7,2013-07-26 23:24:00,
2013-07-26 19:34:00,71.3,66.9,29.91,North,-999,0.0,0.0,86,0.00,,,-99.99,WeatherLink 5.7,2013-07-26 23:34:00,
2013-07-26 19:44:00,70.8,66.7,29.91,WNW,292,1.0,2.0,87,0.00,,,-99.99,WeatherLink 5.7,2013-07-26 23:44:00,
2013-07-26 19:54:00,70.1,65.7,29.91,North,-999,0.0,0.0,86,0.00,,,-99.99,WeatherLink 5.7,2013-07-26 23:54:00,
2013-07-26 20:04:00,69.8,65.4,29.90,North,-999,0.0,0.0,86,0.00,,,-99.99,WeatherLink 5.7,2013-07-27 00:04:00,
2013-07-26 20:09:00,69.6,65.2,29.90,North,-999,0.0,0.0,86,0.00,,,-99.99,WeatherLink 5.7,2013-07-27 00:09:00,
2013-07-26 20:19:00,69.3,65.3,29.91,North,-999,0.0,0.0,87,0.00,,,-99.99,WeatherLink 5.7,2013-07-27 00:19:00,
2013-07-26 20:29:00,68.9,64.9,29.91,North,-999,0.0,0.0,87,0.00,,,-99.99,WeatherLink 5.7,2013-07-27 00:29:00,
2013-07-26 20:39:00,68.6,64.2,29.91,North,-999,0.0,0.0,86,0.00,,,-99.99,WeatherLink 5.7,2013-07-27 00:39:00,
2013-07-26 20:44:00,68.4,64.4,29.91,North,-999,0.0,0.0,87,0.00,,,-99.99,WeatherLink 5.7,2013-07-27 00:44:00,
2013-07-26 20:54:00,67.9,63.6,29.91,North,-999,0.0,0.0,86,0.00,,,-99.99,WeatherLink 5.7,2013-07-27 00:54:00,
2013-07-26 21:04:00,67.8,63.8,29.91,North,-999,0.0,0.0,87,0.00,,,-99.99,WeatherLink 5.7,2013-07-27 01:04:00,
2013-07-26 21:09:00,67.4,63.7,29.92,North,-999,0.0,0.0,88,0.00,,,-99.99,WeatherLink 5.7,2013-07-27 01:09:00,
2013-07-26 21:19:00,67.1,63.7,29.92,North,-999,0.0,0.0,89,0.00,,,-99.99,WeatherLink 5.7,2013-07-27 01:19:00,
2013-07-26 21:29:00,66.8,63.8,29.92,North,-999,0.0,0.0,90,0.00,,,-99.99,WeatherLink 5.7,2013-07-27 01:29:00,
2013-07-26 21:39:00,66.4,63.4,29.92,North,-999,0.0,0.0,90,0.00,,,-99.99,WeatherLink 5.7,2013-07-27 01:39:00,
2013-07-26 21:44:00,66.4,63.7,29.92,North,-999,0.0,0.0,91,0.00,,,-99.99,WeatherLink 5.7,2013-07-27 01:44:00,
2013-07-26 21:54:00,66.1,63.4,29.92,North,-999,0.0,0.0,91,0.00,,,-99.99,WeatherLink 5.7,2013-07-27 01:54:00,
2013-07-26 22:04:00,66.0,63.3,29.92,North,-999,0.0,0.0,91,0.00,,,-99.99,WeatherLink 5.7,2013-07-27 02:04:00,
2013-07-26 22:14:00,65.6,63.2,29.93,North,0,0.0,2.0,92,0.00,,,-99.99,WeatherLink 5.7,2013-07-27 02:14:00,
2013-07-26 22:24:00,65.5,63.1,29.93,North,-999,0.0,0.0,92,0.00,,,-99.99,WeatherLink 5.7,2013-07-27 02:24:00,
2013-07-26 22:34:00,65.3,62.9,29.93,North,-999,0.0,0.0,92,0.00,,,-99.99,WeatherLink 5.7,2013-07-27 02:34:00,
2013-07-26 22:39:00,65.3,62.9,29.93,North,-999,0.0,0.0,92,0.00,,,-99.99,WeatherLink 5.7,2013-07-27 02:39:00,
2013-07-26 22:49:00,65.2,62.8,29.93,North,-999,0.0,0.0,92,0.00,,,-99.99,WeatherLink 5.7,2013-07-27 02:49:00,
2013-07-26 22:59:00,64.8,62.1,29.93,North,0,0.0,1.0,91,0.00,,,-99.99,WeatherLink 5.7,2013-07-27 02:59:00,
2013-07-26 23:09:00,64.8,62.1,29.93,North,-999,0.0,0.0,91,0.00,,,-99.99,WeatherLink 5.7,2013-07-27 03:09:00,
2013-07-26 23:19:00,64.7,62.3,29.93,North,-999,0.0,0.0,92,0.00,,,-99.99,WeatherLink 5.7,2013-07-27 03:19:00,
2013-07-26 23:24:00,64.5,62.1,29.93,North,-999,0.0,0.0,92,0.00,,,-99.99,WeatherLink 5.7,2013-07-27 03:24:00,
2013-07-26 23:34:00,64.5,62.1,29.94,North,-999,0.0,0.0,92,0.00,,,-99.99,WeatherLink 5.7,2013-07-27 03:34:00,
2013-07-26 23:44:00,64.3,61.9,29.94,North,-999,0.0,0.0,92,0.00,,,-99.99,WeatherLink 5.7,2013-07-27 03:44:00,
2013-07-26 23:54:00,64.2,61.8,29.94,North,0,0.0,1.0,92,0.00,,,-99.99,WeatherLink 5.7,2013-07-27 03:54:00,
2013-07-26 23:59:00,64.0,61.6,29.94,North,-999,0.0,0.0,92,0.00,,,-99.99,WeatherLink 5.7,2013-07-27 03:59:00,